EHI
16 16 14 12 11 9 9 9 8 6 5 4 4 2 1 0 0 0 1 2 5 8 9 6 3 3 5 8 11 12 11 9 7 3 1 0 1 1 1 1 3 3 2
16 16 15 13 11 8 6 5 4 3 2 2 1 1 0 0 0 0 0 1 4 7 8 6 3 2 3 5 8 11 12 10 8 5 2 0 0 1 1 1 3 4 2
13 14 14 13 10 6 3 1 0 0 0 0 0 0 0 1 0 0 0 0 2 4 7 7 5 2 2 2 4 7 9 9 8 7 3 1 0 0 1 1 2 2 2
12 12 12 11 8 3 1 0 0 0 0 0 0 0 0 0 0 0 0 1 1 2 3 6 6 5 3 1 1 3 5 7 7 5 3 1 0 1 2 1 1 1 1
12 12 11 9 5 1 0 0 0 0 0 0 0 0 0 0 0 0 0 1 1 0 1 2 4 5 3 2 1 1 3 5 5 2 1 0 0 1 2 1 0 0 0
13 11 9 5 3 1 1 0 0 0 0 0 0 0 0 0 0 0 0 1 1 0 0 0 1 2 2 2 2 2 3 4 3 1 0 0 1 2 2 1 0 0 0
10 8 5 2 1 1 1 0 0 0 0 0 0 0 0 0 0 0 0 0 0 0 0 0 0 0 0 1 2 2 3 2 1 0 0 1 2 2 1 0 0 0 0
8 6 4 1 0 0 0 0 0 0 0 0 0 0 0 0 0 0 0 0 0 0 0 0 0 0 0 0 1 1 2 2 1 1 0 1 2 2 1 0 0 0 0
7 6 4 1 0 0 0 0 0 0 0 0 0 0 0 0 0 0 0 0 0 0 0 0 0 0 0 0 0 0 1 2 2 2 1 1 2 2 1 0 0 0 0
6 5 3 1 0 0 0 0 0 0 0 0 0 0 0 0 0 0 0 0 0 0 0 0 0 0 0 0 0 0 0 1 3 3 2 2 2 2 0 0 0 0 0
3 3 2 1 0 0 0 0 0 0 0 0 0 0 0 0 0 0 0 0 0 0 0 0 0 0 0 0 0 0 0 1 2 3 3 3 2 1 0 0 0 0 0
2 3 2 1 0 0 0 0 0 0 0 0 0 0 0 0 0 0 0 0 0 0 0 0 0 0 0 0 0 0 0 0 1 1 2 2 1 1 0 0 0 0 0
3 2 1 0 0 0 0 0 0 0 0 0 0 0 0 0 0 0 0 0 0 0 0 0 0 0 0 0 0 0 0 0 0 0 1 1 0 0 0 0 0 0 0
3 3 1 0 0 0 0 0 0 0 0 0 0 0 0 0 0 0 0 0 0 0 0 0 0 0 0 0 0 0 0 0 0 0 0 0 0 0 0 0 0 0 0
3 3 2 1 0 0 0 0 0 0 0 0 0 0 0 0 0 0 0 0 0 0 0 0 0 0 0 0 0 0 0 0 0 0 0 0 0 0 0 0 0 0 0
1 2 2 1 0 0 0 0 0 0 0 0 0 0 0 0 0 0 0 0 0 0 0 0 0 0 0 0 0 0 0 0 0 0 0 0 0 0 0 0 0 0 0
0 1 1 0 0 0 0 0 0 0 0 0 0 0 0 0 0 0 0 0 0 0 0 0 0 0 0 0 0 0 0 0 0 0 0 0 0 0 0 0 0 0 0
0 0 0 0 0 0 0 0 0 0 0 0 0 0 0 0 0 0 0 0 0 0 0 0 0 0 0 0 0 0 0 0 0 0 0 0 0 0 0 0 0 0 0
0 0 0 0 0 0 0 0 0 0 0 0 0 0 0 0 0 0 0 0 0 0 0 0 0 0 0 0 0 0 0 0 0 0 0 0 0 0 0 0 0 0 0
0 0 0 0 0 0 0 0 0 0 0 0 0 0 0 0 0 0 0 0 0 0 0 0 0 0 0 0 0 0 0 0 0 0 0 0 0 0 0 0 0 0 0
0 0 0 0 0 0 0 0 0 0 0 0 0 0 0 0 0 0 0 0 0 0 0 0 0 0 0 0 0 0 0 0 0 0 0 0 0 0 0 0 0 0 0
0 0 0 0 0 0 0 0 0 0 0 0 0 0 0 0 0 0 0 0 0 0 0 0 0 0 0 0 0 0 0 0 0 0 0 0 0 0 0 0 0 0 0
0 0 0 0 0 0 0 0 0 0 0 0 0 0 0 0 0 0 0 0 0 0 0 0 0 0 0 0 0 0 0 0 0 0 0 0 0 0 0 0 0 0 0
0 0 0 0 0 0 0 0 0 0 0 0 0 0 0 0 0 0 0 0 0 0 0 0 0 0 0 0 0 0 0 0 0 0 0 0 0 0 0 0 0 0 0
0 0 0 0 0 0 0 0 0 0 0 0 0 0 0 0 0 0 0 0 0 0 0 0 0 0 0 0 0 0 0 0 0 0 0 0 0 0 0 0 0 0 0
0 0 0 0 0 0 0 0 0 0 0 0 0 0 0 0 0 0 0 0 0 0 0 0 0 0 0 0 0 0 0 0 0 0 0 0 0 0 0 0 0 0 0
Wind_Speed
2 2 1 1 2 1 2 2 2 2 3 3 3 4 4 3 3 3 3 7 7 7 8 8 8 9 9 10 10 10 10 10 10 10 10 10 10 11 13 13 14 14 14
2 1 1 1 1 1 1 1 2 1 2 2 3 3 3 3 3 3 3 5 8 8 8 9 9 9 9 10 10 11 11 11 11 11 11 11 11 11 12 13 14 14 14
2 2 1 1 1 1 1 1 1 1 2 2 3 4 3 3 4 4 3 3 4 8 9 9 10 10 10 11 11 11 12 12 12 12 12 12 12 12 12 12 13 14 14
2 2 1 1 1 1 0 0 0 1 2 2 3 3 3 3 4 4 3 3 3 4 6 9 10 11 11 11 12 12 12 12 13 13 13 13 13 13 13 13 13 13 14
2 2 1 1 1 0 0 1 0 1 2 3 3 3 3 3 4 4 4 4 4 4 4 7 10 10 11 11 12 13 13 13 13 13 13 13 13 13 13 14 13 13 14
2 2 1 1 1 0 0 0 1 1 2 2 4 4 3 4 3 3 4 4 4 5 4 4 4 7 11 11 12 13 13 14 14 14 14 14 14 13 13 13 14 14 14
2 2 1 1 1 1 1 1 1 1 2 1 1 3 4 3 3 3 3 3 3 4 4 4 3 3 4 9 11 12 13 14 13 14 15 14 13 13 13 13 13 14 14
3 3 3 2 2 1 1 1 1 1 1 0 0 1 3 4 3 3 2 3 3 3 3 4 3 4 3 3 5 10 11 12 13 13 13 13 13 13 14 13 14 14 15
3 3 3 3 2 2 2 2 2 2 1 2 1 2 1 2 3 3 3 3 3 2 3 3 3 4 4 3 4 7 10 10 12 12 12 12 13 13 14 14 15 15 15
2 3 3 3 3 2 3 3 2 2 2 2 2 2 3 3 2 3 4 3 3 3 3 3 4 4 4 3 5 8 9 10 11 11 11 12 13 13 13 14 14 15 16
2 2 3 3 3 3 3 3 2 2 2 3 2 2 2 1 2 2 4 4 3 3 3 4 3 3 3 4 4 6 9 9 9 10 11 12 12 13 14 14 14 15 15
2 2 2 3 3 3 3 3 3 2 2 2 2 2 2 2 2 2 3 3 4 4 4 3 3 3 3 4 5 8 9 9 9 9 10 11 11 12 13 14 15 15 15
2 3 3 3 3 3 3 3 2 3 3 3 3 3 3 3 3 2 2 3 3 3 3 3 3 3 3 3 4 9 9 9 9 9 10 10 10 11 12 13 14 14 14
3 3 3 3 3 3 3 2 2 3 2 3 4 3 2 3 3 3 3 2 2 3 3 5 3 3 3 3 6 8 6 9 9 9 9 9 9 10 11 12 12 12 12
3 3 2 2 2 2 3 2 2 3 2 3 3 3 3 3 3 3 3 3 3 3 4 4 3 4 3 3 5 4 4 7 9 9 8 8 8 9 9 9 10 11 11
2 2 2 2 2 2 2 2 2 2 2 3 3 3 3 3 3 2 3 3 3 4 4 4 3 4 4 4 5 3 4 7 8 9 8 9 8 8 9 9 9 10 10
2 2 2 2 2 2 3 2 3 2 2 3 2 3 4 3 2 2 2 2 2 3 4 5 3 3 3 4 4 3 3 3 4 9 9 9 9 9 9 9 9 10 10
2 2 2 2 2 2 2 3 3 3 3 3 3 3 4 3 3 3 2 3 3 3 3 5 4 3 4 4 4 4 4 3 4 7 9 9 9 9 9 8 9 9 9
2 2 2 2 2 2 2 3 3 3 3 3 3 3 4 3 4 3 3 3 3 3 3 3 4 3 3 3 2 3 3 3 4 5 7 8 9 9 9 9 10 10 10
2 3 2 2 2 2 2 3 3 3 3 3 4 4 4 4 5 4 4 4 3 3 2 2 3 3 3 3 2 2 3 3 4 4 4 5 6 8 9 10 10 10 10
3 3 2 2 2 2 2 2 2 2 3 3 4 4 5 5 6 5 4 3 3 2 2 2 3 3 3 2 2 2 3 3 3 2 2 3 3 3 4 7 9 10 10
3 2 2 2 2 2 3 3 2 2 2 3 4 4 5 5 5 6 6 6 5 4 3 3 3 3 4 4 3 2 2 2 3 2 1 3 2 3 3 4 7 9 10
2 2 2 2 2 3 4 4 3 2 2 3 3 3 3 3 3 3 5 6 5 6 6 4 4 5 4 4 3 3 3 3 4 3 1 3 2 3 3 4 8 10 10
2 2 3 3 2 3 4 4 3 2 2 3 3 3 2 3 3 3 3 4 4 4 4 4 5 6 6 5 4 4 4 3 3 3 2 3 3 3 3 3 7 10 10
3 3 2 2 2 3 4 3 2 1 2 3 3 3 2 3 4 3 2 3 5 5 5 4 5 6 7 7 5 2 2 2 3 3 2 2 2 2 2 3 5 8 10
3 3 2 2 2 3 4 3 2 0 2 3 3 4 4 4 4 4 2 2 4 5 4 6 5 6 5 4 4 3 3 2 2 3 2 2 2 1 2 3 2 2 4
Wind_Direction
191 205 223 231 232 222 218 237 251 264 276 278 272 266 260 250 236 220 234 233 231 230 231 234 236 237 234 229 223 221 222 223 223 224 223 222 221 218 216 214 214 213 210
181 194 222 232 238 239 238 235 248 258 266 273 279 274 267 259 249 234 229 237 237 233 232 234 237 241 242 241 234 229 227 227 228 226 225 224 222 220 217 216 215 213 211
178 182 192 216 242 264 273 268 282 292 287 289 288 286 277 263 257 250 236 233 236 238 238 237 235 238 243 243 239 236 236 233 232 230 227 227 226 223 218 216 214 213 212
172 162 163 213 242 247 242 242 283 294 291 291 288 282 276 267 259 249 239 234 232 240 246 246 242 241 242 244 243 240 240 240 236 233 229 228 229 227 223 220 218 216 213
175 162 174 213 235 214 220 270 315 274 290 296 288 283 282 276 265 263 250 241 234 232 233 247 247 245 246 248 248 245 244 245 242 238 234 230 229 227 224 223 220 219 215
178 166 182 199 206 182 264 278 278 291 276 281 296 300 287 277 269 263 259 256 242 234 230 237 244 249 250 250 249 248 249 249 248 244 238 234 231 227 224 224 222 221 218
184 174 185 197 192 196 228 238 241 292 300 316 327 312 302 283 266 260 266 265 256 246 239 237 232 233 251 253 251 250 253 254 253 250 243 238 233 228 225 224 223 223 221
207 201 192 198 209 216 248 245 219 242 271 299 184 333 325 329 321 292 284 267 267 266 261 254 237 231 235 241 247 250 254 256 254 253 250 243 236 231 228 225 226 227 224
224 215 205 200 206 201 229 234 218 198 243 278 202 176 204 269 308 309 289 282 282 279 276 274 258 251 242 235 244 252 252 255 255 255 256 250 239 234 230 229 229 229 227
237 226 207 201 206 206 222 236 216 198 189 253 266 222 211 205 229 302 312 299 292 286 281 273 266 261 253 237 236 242 249 250 252 256 255 251 241 235 232 231 230 231 229
259 241 216 205 212 216 225 235 229 213 200 218 233 242 247 243 211 219 283 304 310 290 274 263 255 256 253 241 236 243 249 249 248 251 250 248 240 237 235 233 231 231 230
277 262 224 208 216 221 229 231 227 225 224 224 229 222 210 222 231 218 246 272 287 290 287 273 259 255 250 245 245 250 249 250 246 245 244 243 241 239 237 236 233 231 230
268 258 230 220 222 221 221 219 221 231 229 227 232 234 226 226 220 211 229 260 274 287 295 284 263 256 257 250 252 255 251 250 247 243 243 242 242 243 241 239 234 230 230
256 253 229 228 227 218 217 219 224 232 228 231 241 239 240 245 230 212 207 221 278 291 286 278 284 264 262 257 250 254 254 249 247 244 242 240 244 243 240 236 232 229 227
256 250 232 232 233 225 219 212 223 241 239 238 242 245 248 252 243 229 215 197 199 259 278 275 278 281 273 261 257 251 250 250 249 248 245 242 242 239 236 235 231 228 225
264 261 249 230 230 235 231 219 239 249 241 248 241 246 253 254 251 238 226 217 198 205 251 265 261 273 282 285 271 257 252 259 254 251 248 243 241 234 230 227 229 229 225
266 259 246 235 237 244 240 233 245 246 247 263 263 248 258 258 258 258 246 239 229 211 248 274 266 276 273 276 284 270 260 252 255 251 248 244 241 237 233 230 226 226 223
260 262 257 242 246 253 249 242 253 259 248 254 260 259 266 268 266 263 253 251 246 229 227 265 281 280 269 267 263 265 266 258 250 253 250 243 238 235 233 232 227 223 221
271 271 263 256 256 255 249 249 243 251 252 250 249 249 260 263 271 270 262 259 258 256 230 244 272 272 274 275 274 278 274 270 265 256 250 243 239 235 234 233 230 227 226
270 274 271 259 258 259 249 251 250 254 261 263 256 247 249 248 254 260 265 262 260 269 266 261 271 278 275 276 257 267 289 280 274 268 258 250 241 235 234 233 230 228 227
272 267 261 263 268 263 261 266 263 259 261 271 277 268 259 260 256 250 254 250 247 253 265 264 273 282 282 281 268 258 273 287 282 256 253 257 243 237 236 233 231 228 226
290 280 263 261 271 274 279 276 262 259 264 268 281 285 279 274 273 273 270 260 238 227 241 244 256 262 268 262 262 263 262 280 289 270 221 263 235 242 240 229 229 225 224
291 289 274 259 256 270 281 287 286 261 260 264 269 280 288 290 289 285 289 292 283 264 238 221 238 249 253 249 244 261 252 248 248 250 208 261 251 249 251 246 231 225 223
293 280 273 270 268 280 284 289 307 309 291 284 278 271 273 290 296 299 299 306 300 293 270 240 234 247 250 250 234 236 246 260 267 262 205 242 253 247 254 253 242 229 227
298 288 277 267 268 284 291 303 314 318 306 303 301 293 278 286 294 310 311 304 308 307 302 287 268 270 272 267 248 231 257 247 271 273 223 214 248 254 251 250 249 237 234
278 290 293 281 260 273 286 300 308 287 302 307 312 308 293 293 302 313 284 276 289 291 308 319 318 312 298 289 270 217 221 227 245 271 247 203 240 228 280 263 244 240 237